Location: Elma
(49.8670°N, 95.9170°W)
Time: 03:39:53
(UTC-05:00)

ISS - Visible Passes

Search period start: 26 March 2019 00:00
Search period end: 05 April 2019 00:00
Orbit: 408 x 411 km, 51.6° (Epoch: 26 March)

Date Brightness Start Highest point End Pass type
(mag) Time Alt. Az. Time Alt. Az. Time Alt. Az.
26 Mar -3.8 21:12:02 10° WSW 21:15:21 80° NNW 21:17:04 26° ENE visible
26 Mar -1.1 22:48:49 10° WNW 22:49:50 18° WNW 22:49:50 18° WNW visible
27 Mar -3.8 20:21:21 10° WSW 20:24:40 80° SSE 20:27:58 10° ENE visible
27 Mar -3.4 21:58:04 10° W 22:01:16 60° N 22:01:16 60° N visible
28 Mar -3.5 21:07:19 10° W 21:10:37 63° N 21:12:39 21° ENE visible
28 Mar -1.4 22:44:03 10° WNW 22:45:25 23° WNW 22:45:25 23° WNW visible
29 Mar -3.6 20:16:33 10° W 20:19:52 72° N 20:23:10 10° ENE visible
29 Mar -3.7 21:53:19 10° WNW 21:56:37 68° N 21:56:44 67° NNE visible
30 Mar -3.5 21:02:34 10° WNW 21:05:51 62° N 21:08:02 19° E visible
30 Mar -1.7 22:39:13 10° WNW 22:40:47 25° W 22:40:47 25° W visible
31 Mar -4.0 21:48:28 10° WNW 21:51:47 87° SSW 21:52:04 73° ESE visible
01 Apr -3.7 20:57:43 10° WNW 21:01:01 75° NNE 21:03:20 18° E visible
01 Apr -1.8 22:34:25 10° W 22:36:05 24° W 22:36:05 24° W visible
02 Apr -3.5 21:43:34 10° WNW 21:46:49 52° SSW 21:47:22 45° SSE visible
03 Apr -3.8 20:52:47 10° WNW 20:56:05 75° SSW 20:58:39 16° ESE visible
03 Apr -1.4 22:29:53 10° W 22:31:25 17° WSW 22:31:25 17° WSW visible
04 Apr -2.3 21:38:46 10° W 21:41:40 28° SW 21:42:44 23° S visible
